Terug naar catalogus

SL-19 DEB

ActiefUNKNOWN
NORAD 24679·DEBRIS·🇷🇺 Russia

Gelanceerd Dec 26, 1994 vanaf Baikonur Cosmodrome

Loading…

Volgende Passages (komende 24 uur)

TLE

VersSource: Space-Track

Epoch: Sep 13, 2026, 19:35 UTC

1 24679U 94085Y   26256.81654612 -.00000022  00000-0  55207-3 0  9995
2 24679  64.9826  95.3558 0175301  84.0371 291.8076 11.32324068476235

Volg SL-19 DEB in realtime met AllMySat

Download on the App Store